Time,TemperatureF,DewpointF,PressureIn,WindDirection,WindDirectionDegrees,WindSpeedMPH,WindSpeedGustMPH,Humidity,HourlyPrecipIn,Conditions,Clouds,dailyrainin,SoftwareType,DateUTC
2013-11-17 00:01:00,53.4,51.1,29.50,SW,221,11.0,11.0,92,0.22,,-RA,0.42,VWS V14.01,2013-11-17 05:01:00,
2013-11-17 00:02:00,53.3,51.3,29.50,SSW,203,10.0,11.0,93,0.22,,,0.42,VWS V14.01,2013-11-17 05:02:00,
2013-11-17 00:07:00,53.2,51.2,29.50,SW,219,10.0,12.0,93,0.06,,,0.00,VWS V14.01,2013-11-17 05:07:00,
2013-11-17 00:12:00,53.3,51.3,29.50,SW,215,11.0,11.0,93,0.07,,,0.01,VWS V14.01,2013-11-17 05:12:00,
2013-11-17 00:17:00,53.3,51.3,29.50,SW,221,11.0,14.0,93,0.07,,,0.01,VWS V14.01,2013-11-17 05:17:00,
2013-11-17 00:22:00,53.4,51.4,29.50,ESE,120,7.0,9.0,93,0.07,,,0.01,VWS V14.01,2013-11-17 05:22:00,
2013-11-17 00:27:00,53.5,51.5,29.50,SSW,209,6.0,8.0,93,0.08,,,0.02,VWS V14.01,2013-11-17 05:27:00,
2013-11-17 00:32:00,53.5,51.5,29.50,SW,221,6.0,6.0,93,0.08,,,0.02,VWS V14.01,2013-11-17 05:32:00,
2013-11-17 00:37:00,53.6,51.6,29.50,SW,219,9.0,9.0,93,0.06,,,0.02,VWS V14.01,2013-11-17 05:37:00,
2013-11-17 00:42:00,53.7,51.7,29.50,SW,217,8.0,10.0,93,0.06,,,0.02,VWS V14.01,2013-11-17 05:42:00,
2013-11-17 00:47:00,53.7,51.4,29.50,WSW,237,3.0,13.0,92,0.06,,,0.02,VWS V14.01,2013-11-17 05:47:00,
2013-11-17 00:52:00,53.9,51.6,29.49,SSW,209,14.0,16.0,92,0.06,,,0.02,VWS V14.01,2013-11-17 05:52:00,
2013-11-17 00:57:00,54.2,51.9,29.50,WSW,258,10.0,18.0,92,0.06,,,0.02,VWS V14.01,2013-11-17 05:57:00,
2013-11-17 01:02:00,54.2,51.9,29.49,SSW,211,9.0,11.0,92,0.06,,OVC023,0.02,VWS V14.01,2013-11-17 06:02:00,
2013-11-17 01:07:00,54.2,51.9,29.50,WSW,242,8.0,11.0,92,0.02,,OVC023,0.02,VWS V14.01,2013-11-17 06:07:00,
2013-11-17 01:12:00,54.2,51.6,29.49,SSW,212,10.0,11.0,91,0.02,,OVC023,0.02,VWS V14.01,2013-11-17 06:12:00,
2013-11-17 01:17:00,54.3,51.7,29.49,SW,227,9.0,10.0,91,0.02,,OVC023,0.02,VWS V14.01,2013-11-17 06:17:00,
2013-11-17 01:22:00,54.3,51.7,29.50,SSW,206,3.0,6.0,91,0.02,,OVC023,0.02,VWS V14.01,2013-11-17 06:22:00,
2013-11-17 01:27:00,54.4,51.8,29.49,SSW,192,8.0,12.0,91,0.02,,OVC023,0.02,VWS V14.01,2013-11-17 06:27:00,
2013-11-17 01:32:00,54.4,51.8,29.49,WSW,242,6.0,6.0,91,0.02,,OVC023,0.02,VWS V14.01,2013-11-17 06:32:00,
2013-11-17 01:37:00,54.5,51.9,29.50,SW,233,7.0,11.0,91,0.00,,OVC023,0.02,VWS V14.01,2013-11-17 06:37:00,
2013-11-17 01:42:00,54.6,52.0,29.49,SSW,211,5.0,8.0,91,0.00,,OVC023,0.02,VWS V14.01,2013-11-17 06:42:00,
2013-11-17 01:47:00,54.7,52.1,29.49,South,173,7.0,10.0,91,0.00,,OVC023,0.02,VWS V14.01,2013-11-17 06:47:00,
2013-11-17 01:52:00,55.0,52.1,29.50,SSW,213,12.0,15.0,90,0.00,,OVC023,0.02,VWS V14.01,2013-11-17 06:52:00,
2013-11-17 01:57:00,55.1,52.2,29.49,SSW,204,6.0,7.0,90,0.00,,OVC023,0.02,VWS V14.01,2013-11-17 06:57:00,
2013-11-17 02:02:00,55.1,52.2,29.49,SSW,207,7.0,9.0,90,0.00,,OVC028,0.02,VWS V14.01,2013-11-17 07:02:00,
2013-11-17 02:07:00,55.2,52.3,29.49,SSW,202,10.0,13.0,90,0.00,,OVC028,0.02,VWS V14.01,2013-11-17 07:07:00,
2013-11-17 02:12:00,55.3,52.4,29.49,SSW,211,11.0,14.0,90,0.00,,OVC028,0.02,VWS V14.01,2013-11-17 07:12:00,
2013-11-17 02:17:00,55.3,52.4,29.49,WSW,257,8.0,9.0,90,0.00,,OVC028,0.02,VWS V14.01,2013-11-17 07:17:00,
2013-11-17 02:22:00,55.3,52.4,29.49,WSW,237,6.0,7.0,90,0.00,,OVC028,0.02,VWS V14.01,2013-11-17 07:22:00,
2013-11-17 02:27:00,55.3,52.4,29.49,West,263,9.0,12.0,90,0.00,,OVC028,0.02,VWS V14.01,2013-11-17 07:27:00,
2013-11-17 02:32:00,55.4,52.5,29.49,SW,214,5.0,7.0,90,0.00,,OVC028,0.02,VWS V14.01,2013-11-17 07:32:00,
2013-11-17 02:37:00,55.5,52.6,29.49,SSW,202,6.0,7.0,90,0.00,,OVC028,0.02,VWS V14.01,2013-11-17 07:37:00,
2013-11-17 02:42:00,55.5,52.6,29.48,WSW,250,11.0,14.0,90,0.00,,OVC028,0.02,VWS V14.01,2013-11-17 07:42:00,
2013-11-17 02:47:00,55.6,52.7,29.49,SSW,196,9.0,11.0,90,0.00,,OVC028,0.02,VWS V14.01,2013-11-17 07:47:00,
2013-11-17 02:52:00,55.6,52.7,29.48,SSW,192,8.0,10.0,90,0.00,,OVC028,0.02,VWS V14.01,2013-11-17 07:52:00,
2013-11-17 02:57:00,55.5,52.6,29.47,WSW,240,4.0,5.0,90,0.00,,OVC028,0.02,VWS V14.01,2013-11-17 07:57:00,
2013-11-17 03:02:00,55.5,52.6,29.47,SSW,208,11.0,14.0,90,0.00,,OVC021,0.02,VWS V14.01,2013-11-17 08:02:00,
2013-11-17 03:07:00,55.5,52.6,29.47,SW,217,7.0,7.0,90,0.00,,OVC021,0.02,VWS V14.01,2013-11-17 08:07:00,
2013-11-17 03:12:00,55.5,52.9,29.47,SSW,213,7.0,9.0,91,0.00,,OVC021,0.02,VWS V14.01,2013-11-17 08:12:00,
2013-11-17 03:17:00,55.6,53.0,29.47,WSW,239,14.0,14.0,91,0.00,,OVC021,0.02,VWS V14.01,2013-11-17 08:17:00,
2013-11-17 03:22:00,55.6,53.0,29.47,SW,228,9.0,10.0,91,0.00,,OVC021,0.02,VWS V14.01,2013-11-17 08:22:00,
2013-11-17 03:27:00,55.6,53.0,29.47,SSW,204,10.0,12.0,91,0.00,,OVC021,0.02,VWS V14.01,2013-11-17 08:27:00,
2013-11-17 03:32:00,55.6,53.0,29.47,South,169,14.0,15.0,91,0.00,,OVC021,0.02,VWS V14.01,2013-11-17 08:32:00,
2013-11-17 03:37:00,55.6,53.0,29.47,SW,225,4.0,6.0,91,0.00,,OVC021,0.02,VWS V14.01,2013-11-17 08:37:00,
2013-11-17 03:42:00,55.6,53.0,29.48,SW,215,7.0,14.0,91,0.00,,OVC021,0.02,VWS V14.01,2013-11-17 08:42:00,
2013-11-17 03:47:00,55.6,53.0,29.48,SSW,206,5.0,7.0,91,0.00,,OVC021,0.02,VWS V14.01,2013-11-17 08:47:00,
2013-11-17 03:52:00,55.6,53.3,29.47,WSW,245,4.0,4.0,92,0.00,,OVC021,0.02,VWS V14.01,2013-11-17 08:52:00,
2013-11-17 03:57:00,55.7,53.4,29.47,SSW,212,6.0,7.0,92,0.00,,OVC021,0.02,VWS V14.01,2013-11-17 08:57:00,
2013-11-17 04:02:00,55.7,53.1,29.47,SW,223,7.0,7.0,91,0.00,,FEW004,0.02,VWS V14.01,2013-11-17 09:02:00,
2013-11-17 04:07:00,55.8,53.5,29.47,SW,236,7.0,7.0,92,0.00,,FEW004,0.02,VWS V14.01,2013-11-17 09:07:00,
2013-11-17 04:13:00,55.9,53.3,29.46,SSW,207,6.0,13.0,91,0.00,,FEW004,0.02,VWS V14.01,2013-11-17 09:13:00,
2013-11-17 04:18:00,56.0,53.4,29.47,SW,236,6.0,9.0,91,0.00,,FEW004,0.02,VWS V14.01,2013-11-17 09:18:00,
2013-11-17 04:23:00,56.1,53.8,29.47,SW,231,2.0,6.0,92,0.00,,FEW004,0.02,VWS V14.01,2013-11-17 09:23:00,
2013-11-17 04:28:00,56.2,53.9,29.47,SW,226,9.0,14.0,92,0.00,,FEW004,0.02,VWS V14.01,2013-11-17 09:28:00,
2013-11-17 04:33:00,56.3,54.0,29.47,SW,225,7.0,8.0,92,0.00,,FEW004,0.02,VWS V14.01,2013-11-17 09:33:00,
2013-11-17 04:38:00,56.3,54.0,29.47,SE,143,8.0,9.0,92,0.00,,FEW004,0.02,VWS V14.01,2013-11-17 09:38:00,
2013-11-17 04:43:00,56.3,54.0,29.47,SW,231,7.0,11.0,92,0.00,,FEW004,0.02,VWS V14.01,2013-11-17 09:43:00,
2013-11-17 04:48:00,56.2,53.9,29.47,SW,217,9.0,9.0,92,0.00,,FEW004,0.02,VWS V14.01,2013-11-17 09:48:00,
2013-11-17 04:53:00,56.1,53.8,29.47,SSE,164,6.0,7.0,92,0.00,,FEW004,0.02,VWS V14.01,2013-11-17 09:53:00,
2013-11-17 04:58:00,56.0,53.7,29.46,SSW,207,6.0,6.0,92,0.00,,FEW004,0.02,VWS V14.01,2013-11-17 09:58:00,
2013-11-17 05:03:00,55.8,53.5,29.47,SW,225,8.0,11.0,92,0.00,,,0.02,VWS V14.01,2013-11-17 10:03:00,
2013-11-17 05:08:00,55.8,53.5,29.47,WSW,240,3.0,5.0,92,0.00,,,0.02,VWS V14.01,2013-11-17 10:08:00,
2013-11-17 05:13:00,55.9,53.9,29.47,SW,216,6.0,6.0,93,0.00,,,0.02,VWS V14.01,2013-11-17 10:13:00,
2013-11-17 05:18:00,55.8,53.8,29.47,SSW,197,3.0,5.0,93,0.00,,,0.02,VWS V14.01,2013-11-17 10:18:00,
2013-11-17 05:23:00,55.8,53.8,29.47,SW,227,10.0,11.0,93,0.00,,,0.02,VWS V14.01,2013-11-17 10:23:00,
2013-11-17 05:28:00,56.0,54.0,29.48,WSW,241,5.0,7.0,93,0.00,,,0.02,VWS V14.01,2013-11-17 10:28:00,
2013-11-17 05:33:00,56.1,54.1,29.47,SW,220,5.0,5.0,93,0.00,,,0.02,VWS V14.01,2013-11-17 10:33:00,
2013-11-17 05:38:00,56.1,54.1,29.48,WSW,240,6.0,9.0,93,0.00,,,0.02,VWS V14.01,2013-11-17 10:38:00,
2013-11-17 05:43:00,56.2,53.9,29.47,SSW,212,2.0,4.0,92,0.00,,,0.02,VWS V14.01,2013-11-17 10:43:00,
2013-11-17 05:48:00,56.2,53.9,29.47,SW,222,6.0,6.0,92,0.00,,,0.02,VWS V14.01,2013-11-17 10:48:00,
2013-11-17 05:53:00,56.1,54.1,29.47,WSW,245,5.0,5.0,93,0.00,,,0.02,VWS V14.01,2013-11-17 10:53:00,
2013-11-17 05:58:00,56.1,54.1,29.47,SE,140,4.0,6.0,93,0.00,,,0.02,VWS V14.01,2013-11-17 10:58:00,
2013-11-17 06:03:00,56.2,54.2,29.47,SW,218,5.0,6.0,93,0.00,,,0.02,VWS V14.01,2013-11-17 11:03:00,
2013-11-17 06:08:00,56.2,54.2,29.47,SW,219,3.0,4.0,93,0.00,,,0.02,VWS V14.01,2013-11-17 11:08:00,
2013-11-17 06:13:00,56.2,54.2,29.46,SW,231,6.0,7.0,93,0.00,,,0.02,VWS V14.01,2013-11-17 11:13:00,
2013-11-17 06:18:00,56.4,54.4,29.46,SSW,210,8.0,13.0,93,0.00,,,0.02,VWS V14.01,2013-11-17 11:18:00,
2013-11-17 06:23:00,56.5,54.5,29.46,WSW,240,4.0,4.0,93,0.00,,,0.02,VWS V14.01,2013-11-17 11:23:00,
2013-11-17 06:28:00,56.6,54.3,29.45,South,181,7.0,7.0,92,0.00,,,0.02,VWS V14.01,2013-11-17 11:28:00,
2013-11-17 06:33:00,56.7,54.4,29.45,South,191,4.0,6.0,92,0.00,,,0.02,VWS V14.01,2013-11-17 11:33:00,
2013-11-17 06:38:00,56.6,54.3,29.45,SSW,206,6.0,8.0,92,0.00,,,0.02,VWS V14.01,2013-11-17 11:38:00,
2013-11-17 06:43:00,56.5,54.2,29.45,SW,221,5.0,6.0,92,0.00,,,0.02,VWS V14.01,2013-11-17 11:43:00,
2013-11-17 06:48:00,56.4,54.1,29.45,South,186,2.0,3.0,92,0.00,,,0.02,VWS V14.01,2013-11-17 11:48:00,
2013-11-17 06:53:00,56.4,54.1,29.45,SW,214,4.0,5.0,92,0.00,,,0.02,VWS V14.01,2013-11-17 11:53:00,
2013-11-17 06:58:00,56.3,54.0,29.45,South,184,4.0,5.0,92,0.00,,,0.02,VWS V14.01,2013-11-17 11:58:00,
2013-11-17 07:03:00,56.2,53.9,29.45,South,189,3.0,8.0,92,0.00,,,0.02,VWS V14.01,2013-11-17 12:03:00,
2013-11-17 07:08:00,56.1,54.1,29.45,SSW,199,6.0,6.0,93,0.00,,,0.02,VWS V14.01,2013-11-17 12:08:00,
2013-11-17 07:13:00,56.0,54.0,29.45,SSW,209,5.0,5.0,93,0.00,,,0.02,VWS V14.01,2013-11-17 12:13:00,
2013-11-17 07:18:00,56.1,54.1,29.45,SSE,165,6.0,7.0,93,0.00,,,0.02,VWS V14.01,2013-11-17 12:18:00,
2013-11-17 07:23:00,56.2,54.2,29.45,SSW,198,5.0,6.0,93,0.00,,,0.02,VWS V14.01,2013-11-17 12:23:00,
2013-11-17 07:28:00,56.3,54.3,29.45,SW,225,4.0,4.0,93,0.00,,,0.02,VWS V14.01,2013-11-17 12:28:00,
2013-11-17 07:33:00,56.4,54.4,29.45,SSW,213,4.0,4.0,93,0.00,,,0.02,VWS V14.01,2013-11-17 12:33:00,
2013-11-17 07:38:00,56.5,54.5,29.45,SW,222,5.0,5.0,93,0.00,,,0.02,VWS V14.01,2013-11-17 12:38:00,
2013-11-17 07:43:00,56.6,54.6,29.45,SSE,150,3.0,5.0,93,0.00,,,0.02,VWS V14.01,2013-11-17 12:43:00,
2013-11-17 07:49:00,56.6,54.6,29.45,WSW,238,3.0,3.0,93,0.00,,,0.02,VWS V14.01,2013-11-17 12:49:00,
2013-11-17 07:54:00,56.6,54.3,29.45,SSW,212,3.0,4.0,92,0.00,,,0.02,VWS V14.01,2013-11-17 12:54:00,
2013-11-17 07:59:00,56.8,54.5,29.44,SW,215,9.0,9.0,92,0.00,,,0.02,VWS V14.01,2013-11-17 12:59:00,
2013-11-17 08:04:00,56.9,54.6,29.44,South,190,4.0,5.0,92,0.00,,CLR,0.02,VWS V14.01,2013-11-17 13:04:00,
2013-11-17 08:09:00,57.0,54.7,29.44,SSW,207,5.0,7.0,92,0.00,,CLR,0.02,VWS V14.01,2013-11-17 13:09:00,
2013-11-17 08:14:00,57.0,54.7,29.43,SW,234,3.0,4.0,92,0.00,,CLR,0.02,VWS V14.01,2013-11-17 13:14:00,
2013-11-17 08:19:00,57.0,54.7,29.43,SW,218,4.0,5.0,92,0.00,,CLR,0.02,VWS V14.01,2013-11-17 13:19:00,
2013-11-17 08:24:00,57.1,54.8,29.43,SSW,202,6.0,6.0,92,0.00,,CLR,0.02,VWS V14.01,2013-11-17 13:24:00,
2013-11-17 08:29:00,57.1,54.8,29.43,SSW,196,3.0,5.0,92,0.00,,CLR,0.02,VWS V14.01,2013-11-17 13:29:00,
2013-11-17 08:34:00,57.0,54.7,29.44,SSW,194,1.0,3.0,92,0.00,,CLR,0.02,VWS V14.01,2013-11-17 13:34:00,
2013-11-17 08:39:00,57.0,54.7,29.43,South,189,2.0,2.0,92,0.00,,CLR,0.02,VWS V14.01,2013-11-17 13:39:00,
2013-11-17 08:44:00,57.1,54.8,29.43,SSW,211,2.0,5.0,92,0.00,,CLR,0.02,VWS V14.01,2013-11-17 13:44:00,
2013-11-17 08:49:00,57.1,54.8,29.43,South,188,2.0,3.0,92,0.00,,CLR,0.02,VWS V14.01,2013-11-17 13:49:00,
2013-11-17 08:54:00,57.2,54.9,29.43,SSE,167,2.0,2.0,92,0.00,,CLR,0.02,VWS V14.01,2013-11-17 13:54:00,
2013-11-17 08:59:00,57.2,54.9,29.43,SSW,200,2.0,3.0,92,0.00,,CLR,0.02,VWS V14.01,2013-11-17 13:59:00,
2013-11-17 09:04:00,57.3,55.0,29.43,SSW,211,1.0,2.0,92,0.00,,CLR,0.02,VWS V14.01,2013-11-17 14:04:00,
2013-11-17 09:09:00,57.3,55.0,29.43,SSW,198,1.0,2.0,92,0.00,,CLR,0.02,VWS V14.01,2013-11-17 14:09:00,
2013-11-17 09:14:00,57.3,55.0,29.42,SSW,207,0.0,1.0,92,0.00,,CLR,0.02,VWS V14.01,2013-11-17 14:14:00,
2013-11-17 09:19:00,57.4,55.1,29.42,SSE,151,2.0,3.0,92,0.00,,CLR,0.02,VWS V14.01,2013-11-17 14:19:00,
2013-11-17 09:24:00,57.5,55.2,29.42,SE,137,8.0,8.0,92,0.00,,CLR,0.02,VWS V14.01,2013-11-17 14:24:00,
2013-11-17 09:29:00,57.5,54.9,29.41,SE,134,4.0,5.0,91,0.00,,CLR,0.02,VWS V14.01,2013-11-17 14:29:00,
2013-11-17 09:34:00,57.5,54.9,29.42,SSE,149,5.0,5.0,91,0.00,,CLR,0.02,VWS V14.01,2013-11-17 14:34:00,
2013-11-17 09:39:00,57.5,54.9,29.42,SSE,148,4.0,4.0,91,0.00,,CLR,0.02,VWS V14.01,2013-11-17 14:39:00,
2013-11-17 09:44:00,57.4,55.1,29.42,SE,124,3.0,3.0,92,0.00,,CLR,0.02,VWS V14.01,2013-11-17 14:44:00,
2013-11-17 09:49:00,57.3,54.7,29.41,SE,138,3.0,8.0,91,0.00,,CLR,0.02,VWS V14.01,2013-11-17 14:49:00,
2013-11-17 09:54:00,57.3,55.0,29.40,SE,138,4.0,6.0,92,0.00,,CLR,0.02,VWS V14.01,2013-11-17 14:54:00,
2013-11-17 09:59:00,57.3,55.0,29.40,ESE,110,7.0,7.0,92,0.00,,CLR,0.02,VWS V14.01,2013-11-17 14:59:00,
2013-11-17 10:04:00,57.2,54.9,29.40,SE,132,2.0,4.0,92,0.00,,,0.02,VWS V14.01,2013-11-17 15:04:00,
2013-11-17 10:09:00,57.1,55.1,29.39,SE,132,4.0,4.0,93,0.00,,,0.02,VWS V14.01,2013-11-17 15:09:00,
2013-11-17 10:14:00,57.1,55.1,29.40,ESE,119,3.0,3.0,93,0.00,,,0.02,VWS V14.01,2013-11-17 15:14:00,
2013-11-17 10:19:00,57.1,55.1,29.39,ESE,115,4.0,4.0,93,0.00,,,0.02,VWS V14.01,2013-11-17 15:19:00,
2013-11-17 10:24:00,57.1,55.1,29.40,SW,221,2.0,3.0,93,0.00,,,0.02,VWS V14.01,2013-11-17 15:24:00,
2013-11-17 10:29:00,57.1,55.1,29.39,SE,144,2.0,4.0,93,0.00,,,0.02,VWS V14.01,2013-11-17 15:29:00,
2013-11-17 10:34:00,57.1,55.1,29.39,SE,138,5.0,7.0,93,0.00,,,0.02,VWS V14.01,2013-11-17 15:34:00,
2013-11-17 10:39:00,57.2,55.2,29.38,SE,125,3.0,4.0,93,0.00,,,0.02,VWS V14.01,2013-11-17 15:39:00,
2013-11-17 10:44:00,57.2,55.2,29.38,ESE,113,3.0,4.0,93,0.00,,,0.02,VWS V14.01,2013-11-17 15:44:00,
2013-11-17 10:49:00,57.2,55.2,29.38,SE,128,2.0,3.0,93,0.00,,,0.02,VWS V14.01,2013-11-17 15:49:00,
2013-11-17 10:54:00,57.3,55.3,29.38,ESE,116,3.0,4.0,93,0.00,,,0.02,VWS V14.01,2013-11-17 15:54:00,
2013-11-17 10:59:00,57.3,55.3,29.37,SE,133,4.0,4.0,93,0.00,,,0.02,VWS V14.01,2013-11-17 15:59:00,
2013-11-17 11:04:00,57.4,55.4,29.36,SE,139,4.0,4.0,93,0.00,,CLR,0.02,VWS V14.01,2013-11-17 16:04:00,
2013-11-17 11:09:00,57.5,55.5,29.35,SE,134,3.0,8.0,93,0.00,,CLR,0.02,VWS V14.01,2013-11-17 16:09:00,
2013-11-17 11:14:00,57.6,55.6,29.36,SE,128,3.0,7.0,93,0.00,,CLR,0.02,VWS V14.01,2013-11-17 16:14:00,
2013-11-17 11:19:00,57.7,55.7,29.36,SSW,212,1.0,2.0,93,0.00,,CLR,0.02,VWS V14.01,2013-11-17 16:19:00,
2013-11-17 11:24:00,57.7,55.7,29.35,SE,131,2.0,2.0,93,0.00,,CLR,0.02,VWS V14.01,2013-11-17 16:24:00,
2013-11-17 11:29:00,57.6,55.6,29.34,SSE,161,2.0,6.0,93,0.01,,CLR,0.03,VWS V14.01,2013-11-17 16:29:00,
2013-11-17 11:34:00,57.6,55.9,29.33,SE,134,4.0,4.0,94,0.04,,CLR,0.06,VWS V14.01,2013-11-17 16:34:00,
2013-11-17 11:39:00,57.4,55.7,29.33,ESE,122,4.0,6.0,94,0.07,,CLR,0.09,VWS V14.01,2013-11-17 16:39:00,
2013-11-17 11:44:00,57.3,55.9,29.32,ESE,107,4.0,6.0,95,0.09,,CLR,0.11,VWS V14.01,2013-11-17 16:44:00,
2013-11-17 11:49:00,57.2,55.8,29.30,SE,125,5.0,5.0,95,0.12,,CLR,0.14,VWS V14.01,2013-11-17 16:49:00,
2013-11-17 11:54:00,57.1,55.7,29.29,ESE,109,7.0,8.0,95,0.14,,CLR,0.16,VWS V14.01,2013-11-17 16:54:00,
2013-11-17 11:59:00,57.1,55.7,29.28,SE,128,7.0,7.0,95,0.15,,CLR,0.17,VWS V14.01,2013-11-17 16:59:00,
2013-11-17 12:04:00,57.0,55.9,29.27,ESE,108,9.0,9.0,96,0.16,,CLR,0.18,VWS V14.01,2013-11-17 17:04:00,
2013-11-17 12:09:00,57.0,55.9,29.27,ESE,113,8.0,8.0,96,0.16,,CLR,0.18,VWS V14.01,2013-11-17 17:09:00,
2013-11-17 12:14:00,57.0,55.9,29.26,ESE,114,6.0,6.0,96,0.18,,CLR,0.20,VWS V14.01,2013-11-17 17:14:00,
2013-11-17 12:20:00,57.0,55.9,29.24,ESE,114,7.0,9.0,96,0.19,,CLR,0.21,VWS V14.01,2013-11-17 17:20:00,
2013-11-17 12:25:00,57.1,56.0,29.24,ESE,115,9.0,9.0,96,0.19,,CLR,0.21,VWS V14.01,2013-11-17 17:25:00,
2013-11-17 12:30:00,57.2,56.1,29.22,SE,128,11.0,11.0,96,0.19,,CLR,0.21,VWS V14.01,2013-11-17 17:30:00,
2013-11-17 12:35:00,57.4,56.3,29.22,South,182,7.0,9.0,96,0.17,,CLR,0.21,VWS V14.01,2013-11-17 17:35:00,
2013-11-17 12:40:00,57.4,56.3,29.21,SE,132,11.0,14.0,96,0.17,,CLR,0.21,VWS V14.01,2013-11-17 17:40:00,
2013-11-17 12:45:00,57.6,56.5,29.20,SE,133,8.0,14.0,96,0.18,,CLR,0.22,VWS V14.01,2013-11-17 17:45:00,
2013-11-17 12:50:00,57.7,56.6,29.20,SSW,208,5.0,13.0,96,0.19,,CLR,0.23,VWS V14.01,2013-11-17 17:50:00,
2013-11-17 12:55:00,57.8,56.7,29.18,SE,142,10.0,10.0,96,0.20,,CLR,0.24,VWS V14.01,2013-11-17 17:55:00,
2013-11-17 13:00:00,57.8,56.4,29.17,South,175,17.0,17.0,95,0.20,,CLR,0.24,VWS V14.01,2013-11-17 18:00:00,
2013-11-17 13:05:00,57.8,56.4,29.16,SSE,155,4.0,12.0,95,0.06,,CLR,0.24,VWS V14.01,2013-11-17 18:05:00,
2013-11-17 13:10:00,57.9,56.5,29.15,SE,144,8.0,15.0,95,0.07,,CLR,0.25,VWS V14.01,2013-11-17 18:10:00,
2013-11-17 13:15:00,58.0,56.3,29.15,ESE,115,7.0,8.0,94,0.07,,CLR,0.25,VWS V14.01,2013-11-17 18:15:00,
2013-11-17 13:20:00,58.0,56.6,29.13,SE,136,9.0,13.0,95,0.07,,CLR,0.25,VWS V14.01,2013-11-17 18:20:00,
2013-11-17 13:25:00,58.1,56.4,29.12,SE,146,13.0,16.0,94,0.07,,CLR,0.25,VWS V14.01,2013-11-17 18:25:00,
2013-11-17 13:30:00,58.4,56.7,29.12,ESE,117,6.0,7.0,94,0.07,,CLR,0.25,VWS V14.01,2013-11-17 18:30:00,
2013-11-17 13:35:00,58.6,56.9,29.10,East,99,7.0,7.0,94,0.06,,CLR,0.27,VWS V14.01,2013-11-17 18:35:00,
2013-11-17 13:40:00,58.9,57.2,29.15,WNW,298,7.0,8.0,94,0.09,,CLR,0.30,VWS V14.01,2013-11-17 18:40:00,
2013-11-17 13:48:00,57.9,55.9,29.15,West,267,3.0,9.0,93,0.24,,CLR,0.45,VWS V14.01,2013-11-17 18:48:00,
2013-11-17 13:53:00,57.4,55.7,29.14,SW,234,8.0,10.0,94,0.27,,CLR,0.48,VWS V14.01,2013-11-17 18:53:00,
2013-11-17 13:59:00,57.1,55.4,29.14,SSW,211,3.0,3.0,94,0.27,,CLR,0.48,VWS V14.01,2013-11-17 18:59:00,
2013-11-17 14:04:00,56.9,55.5,29.14,West,269,3.0,6.0,95,0.25,,OVC016,0.49,VWS V14.01,2013-11-17 19:04:00,
2013-11-17 14:09:00,56.6,54.9,29.13,WNW,282,3.0,3.0,94,0.27,,OVC016,0.51,VWS V14.01,2013-11-17 19:09:00,
2013-11-17 14:14:00,56.3,54.6,29.13,NNW,327,0.0,2.0,94,0.29,,OVC016,0.53,VWS V14.01,2013-11-17 19:14:00,
2013-11-17 14:19:00,55.9,54.2,29.12,NNE,28,5.0,5.0,94,0.31,,OVC016,0.55,VWS V14.01,2013-11-17 19:19:00,
2013-11-17 14:24:00,55.5,53.8,29.13,NNE,16,5.0,5.0,94,0.35,,OVC016,0.59,VWS V14.01,2013-11-17 19:24:00,
2013-11-17 14:29:00,55.1,53.4,29.12,NNE,17,4.0,5.0,94,0.38,,OVC016,0.62,VWS V14.01,2013-11-17 19:29:00,
2013-11-17 14:34:00,54.6,53.2,29.13,WNW,296,4.0,6.0,95,0.40,,OVC016,0.66,VWS V14.01,2013-11-17 19:34:00,
2013-11-17 14:39:00,54.4,53.0,29.14,NW,317,6.0,10.0,95,0.43,,OVC016,0.69,VWS V14.01,2013-11-17 19:39:00,
2013-11-17 14:44:00,54.2,53.1,29.16,SW,236,3.0,4.0,96,0.47,,OVC016,0.73,VWS V14.01,2013-11-17 19:44:00,
2013-11-17 14:49:00,54.1,53.0,29.14,South,180,1.0,3.0,96,0.50,,OVC016,0.76,VWS V14.01,2013-11-17 19:49:00,
2013-11-17 14:54:00,54.0,52.9,29.13,NW,322,2.0,2.0,96,0.54,,OVC016,0.80,VWS V14.01,2013-11-17 19:54:00,
2013-11-17 14:59:00,53.7,52.6,29.11,NE,42,5.0,6.0,96,0.56,,OVC016,0.82,VWS V14.01,2013-11-17 19:59:00,
2013-11-17 15:04:00,53.6,52.5,29.10,East,79,7.0,8.0,96,0.35,,OVC019,0.84,VWS V14.01,2013-11-17 20:04:00,
2013-11-17 15:09:00,53.5,52.4,29.11,East,91,2.0,2.0,96,0.36,,OVC019,0.85,VWS V14.01,2013-11-17 20:09:00,
2013-11-17 15:14:00,53.5,52.4,29.11,SSW,211,2.0,2.0,96,0.37,,OVC019,0.86,VWS V14.01,2013-11-17 20:14:00,
2013-11-17 15:19:00,53.5,52.4,29.09,East,98,2.0,2.0,96,0.38,,OVC019,0.87,VWS V14.01,2013-11-17 20:19:00,
2013-11-17 15:24:00,53.5,52.4,29.08,East,101,1.0,1.0,96,0.39,,OVC019,0.88,VWS V14.01,2013-11-17 20:24:00,
2013-11-17 15:29:00,53.6,52.8,29.09,SE,124,5.0,5.0,97,0.40,,OVC019,0.89,VWS V14.01,2013-11-17 20:29:00,
2013-11-17 15:34:00,53.7,52.9,29.09,SSW,209,4.0,4.0,97,0.24,,OVC019,0.90,VWS V14.01,2013-11-17 20:34:00,
2013-11-17 15:39:00,53.9,53.1,29.09,SE,138,5.0,5.0,97,0.25,,OVC019,0.91,VWS V14.01,2013-11-17 20:39:00,
2013-11-17 15:44:00,54.0,53.2,29.09,SSW,213,2.0,2.0,97,0.27,,OVC019,0.93,VWS V14.01,2013-11-17 20:44:00,
2013-11-17 15:49:00,54.0,53.2,29.09,SE,140,1.0,1.0,97,0.28,,OVC019,0.94,VWS V14.01,2013-11-17 20:49:00,
2013-11-17 15:54:00,54.0,53.2,29.08,SE,134,2.0,2.0,97,0.28,,OVC019,0.94,VWS V14.01,2013-11-17 20:54:00,
2013-11-17 15:59:00,54.1,53.3,29.08,ESE,120,2.0,2.0,97,0.30,,OVC019,0.96,VWS V14.01,2013-11-17 20:59:00,
2013-11-17 16:04:00,54.0,53.2,29.08,SE,133,2.0,3.0,97,0.14,,,0.98,VWS V14.01,2013-11-17 21:04:00,
2013-11-17 16:10:00,54.0,53.2,29.09,SW,234,2.0,3.0,97,0.16,,,1.00,VWS V14.01,2013-11-17 21:10:00,
2013-11-17 16:15:00,54.1,53.3,29.08,SE,125,2.0,3.0,97,0.19,,,1.03,VWS V14.01,2013-11-17 21:15:00,
2013-11-17 16:20:00,54.0,53.2,29.07,ESE,113,2.0,3.0,97,0.20,,,1.04,VWS V14.01,2013-11-17 21:20:00,
2013-11-17 16:25:00,54.0,53.2,29.06,SE,127,2.0,2.0,97,0.21,,,1.05,VWS V14.01,2013-11-17 21:25:00,
2013-11-17 16:30:00,54.0,53.2,29.07,SE,138,1.0,1.0,97,0.23,,,1.07,VWS V14.01,2013-11-17 21:30:00,
2013-11-17 16:35:00,54.0,53.2,29.08,SE,132,2.0,4.0,97,0.19,,,1.09,VWS V14.01,2013-11-17 21:35:00,
2013-11-17 16:40:00,54.0,53.2,29.07,SE,130,3.0,4.0,97,0.21,,,1.11,VWS V14.01,2013-11-17 21:40:00,
2013-11-17 16:45:00,54.1,53.3,29.07,SE,144,3.0,4.0,97,0.24,,,1.14,VWS V14.01,2013-11-17 21:45:00,
2013-11-17 16:50:00,54.1,53.3,29.06,SE,133,2.0,2.0,97,0.25,,,1.15,VWS V14.01,2013-11-17 21:50:00,
2013-11-17 16:55:00,54.1,53.3,29.05,SE,146,2.0,2.0,97,0.27,,,1.17,VWS V14.01,2013-11-17 21:55:00,
2013-11-17 17:00:00,54.1,53.3,29.04,SE,125,2.0,4.0,97,0.29,,,1.19,VWS V14.01,2013-11-17 22:00:00,
2013-11-17 17:05:00,54.1,53.3,29.03,SE,128,3.0,4.0,97,0.25,,,1.22,VWS V14.01,2013-11-17 22:05:00,
2013-11-17 17:11:00,54.1,53.3,29.03,SE,131,3.0,3.0,97,0.27,,,1.24,VWS V14.01,2013-11-17 22:11:00,
2013-11-17 17:16:00,54.1,53.3,29.02,SE,125,2.0,3.0,97,0.30,,,1.27,VWS V14.01,2013-11-17 22:16:00,
2013-11-17 17:21:00,54.0,53.2,29.01,ESE,122,4.0,4.0,97,0.32,,,1.29,VWS V14.01,2013-11-17 22:21:00,
2013-11-17 17:26:00,54.0,53.2,29.01,SE,143,3.0,4.0,97,0.33,,,1.30,VWS V14.01,2013-11-17 22:26:00,
2013-11-17 17:31:00,54.0,53.2,29.02,SE,125,2.0,3.0,97,0.34,,,1.31,VWS V14.01,2013-11-17 22:31:00,
2013-11-17 17:36:00,54.0,53.2,29.02,SE,146,3.0,4.0,97,0.25,,,1.33,VWS V14.01,2013-11-17 22:36:00,
2013-11-17 17:41:00,54.0,53.2,29.02,SE,134,2.0,2.0,97,0.26,,,1.34,VWS V14.01,2013-11-17 22:41:00,
2013-11-17 17:46:00,54.0,53.2,29.01,SE,140,1.0,3.0,97,0.26,,,1.34,VWS V14.01,2013-11-17 22:46:00,
2013-11-17 17:51:00,54.0,53.2,29.01,SSE,153,3.0,3.0,97,0.27,,,1.35,VWS V14.01,2013-11-17 22:51:00,
2013-11-17 17:56:00,54.0,53.2,29.01,SE,131,3.0,3.0,97,0.27,,,1.35,VWS V14.01,2013-11-17 22:56:00,
2013-11-17 18:01:00,54.0,53.2,29.00,SE,132,4.0,4.0,97,0.28,,,1.36,VWS V14.01,2013-11-17 23:01:00,
2013-11-17 18:06:00,54.0,53.2,29.00,SE,138,5.0,5.0,97,0.15,,OVC002,1.36,VWS V14.01,2013-11-17 23:06:00,
2013-11-17 18:11:00,53.9,53.1,29.00,East,100,2.0,3.0,97,0.15,,OVC002,1.36,VWS V14.01,2013-11-17 23:11:00,
2013-11-17 18:16:00,53.9,53.1,28.99,SE,131,4.0,5.0,97,0.16,,OVC002,1.37,VWS V14.01,2013-11-17 23:16:00,
2013-11-17 18:21:00,53.9,53.1,28.99,ESE,121,4.0,4.0,97,0.19,,OVC002,1.40,VWS V14.01,2013-11-17 23:21:00,
2013-11-17 18:26:00,53.9,53.1,28.99,SE,145,3.0,3.0,97,0.21,,OVC002,1.42,VWS V14.01,2013-11-17 23:26:00,
2013-11-17 18:31:00,53.9,53.1,28.98,WSW,252,3.0,4.0,97,0.23,,OVC002,1.44,VWS V14.01,2013-11-17 23:31:00,
2013-11-17 18:36:00,53.9,53.1,28.98,ESE,111,2.0,4.0,97,0.16,,OVC002,1.48,VWS V14.01,2013-11-17 23:36:00,
2013-11-17 18:41:00,53.8,53.0,28.97,South,183,1.0,4.0,97,0.18,,OVC002,1.50,VWS V14.01,2013-11-17 23:41:00,
2013-11-17 18:46:00,53.8,53.0,28.97,SSE,148,4.0,8.0,97,0.20,,OVC002,1.52,VWS V14.01,2013-11-17 23:46:00,
2013-11-17 18:51:00,53.8,53.0,28.96,SSW,204,2.0,2.0,97,0.20,,OVC002,1.52,VWS V14.01,2013-11-17 23:51:00,
2013-11-17 18:56:00,53.7,52.9,28.96,SSW,213,3.0,3.0,97,0.21,,OVC002,1.53,VWS V14.01,2013-11-17 23:56:00,
2013-11-17 19:01:00,53.7,52.9,28.96,SSW,196,2.0,3.0,97,0.22,,OVC002,1.54,VWS V14.01,2013-11-18 00:01:00,
2013-11-17 19:06:00,53.7,52.9,28.95,South,191,4.0,4.0,97,0.19,,-RA,1.55,VWS V14.01,2013-11-18 00:06:00,
2013-11-17 19:11:00,53.7,52.9,28.95,WSW,242,8.0,9.0,97,0.20,,-RA,1.56,VWS V14.01,2013-11-18 00:11:00,
2013-11-17 19:16:00,52.9,51.5,28.96,WNW,300,8.0,8.0,95,0.22,,-RA,1.58,VWS V14.01,2013-11-18 00:16:00,
2013-11-17 19:21:00,51.8,50.1,28.95,WNW,289,7.0,7.0,94,0.23,,-RA,1.59,VWS V14.01,2013-11-18 00:21:00,
2013-11-17 19:26:00,51.1,49.4,28.95,WNW,297,2.0,3.0,94,0.23,,-RA,1.59,VWS V14.01,2013-11-18 00:26:00,
2013-11-17 19:31:00,50.6,49.2,28.95,WNW,294,8.0,9.0,95,0.24,,-RA,1.60,VWS V14.01,2013-11-18 00:31:00,
2013-11-17 19:36:00,49.9,48.5,28.96,West,263,6.0,8.0,95,0.14,,-RA,1.60,VWS V14.01,2013-11-18 00:36:00,
2013-11-17 19:41:00,49.4,48.0,28.95,West,265,8.0,9.0,95,0.15,,-RA,1.61,VWS V14.01,2013-11-18 00:41:00,
2013-11-17 19:46:00,49.0,47.9,28.96,West,274,8.0,10.0,96,0.16,,-RA,1.62,VWS V14.01,2013-11-18 00:46:00,
2013-11-17 19:51:00,48.7,47.6,28.96,West,272,6.0,9.0,96,0.17,,-RA,1.63,VWS V14.01,2013-11-18 00:51:00,
2013-11-17 19:56:00,48.5,47.4,28.96,NNW,331,14.0,14.0,96,0.18,,-RA,1.64,VWS V14.01,2013-11-18 00:56:00,
2013-11-17 20:01:00,48.3,47.2,28.96,NNW,327,10.0,16.0,96,0.20,,RA,1.66,VWS V14.01,2013-11-18 01:01:00,
2013-11-17 20:06:00,48.3,47.5,28.96,WNW,298,13.0,16.0,97,0.12,,RA,1.67,VWS V14.01,2013-11-18 01:06:00,
2013-11-17 20:11:00,48.2,47.4,28.96,NNW,342,10.0,11.0,97,0.13,,RA,1.68,VWS V14.01,2013-11-18 01:11:00,
2013-11-17 20:16:00,48.1,47.0,28.95,NNW,333,15.0,22.0,96,0.13,,RA,1.68,VWS V14.01,2013-11-18 01:16:00,
2013-11-17 20:21:00,47.9,46.8,28.95,NW,313,18.0,18.0,96,0.14,,RA,1.69,VWS V14.01,2013-11-18 01:21:00,
2013-11-17 20:26:00,47.9,47.1,28.96,WNW,291,10.0,11.0,97,0.14,,RA,1.69,VWS V14.01,2013-11-18 01:26:00,
2013-11-17 20:32:00,47.8,47.0,28.96,NW,318,12.0,14.0,97,0.14,,RA,1.69,VWS V14.01,2013-11-18 01:32:00,
2013-11-17 20:37:00,47.6,46.8,28.97,NW,325,10.0,10.0,97,0.09,,RA,1.69,VWS V14.01,2013-11-18 01:37:00,
2013-11-17 20:42:00,47.6,46.8,28.97,WNW,291,12.0,12.0,97,0.09,,RA,1.69,VWS V14.01,2013-11-18 01:42:00,
2013-11-17 20:47:00,47.5,46.7,28.97,NW,312,9.0,14.0,97,0.09,,RA,1.69,VWS V14.01,2013-11-18 01:47:00,
2013-11-17 20:52:00,47.4,46.6,28.98,NNW,348,15.0,15.0,97,0.10,,RA,1.70,VWS V14.01,2013-11-18 01:52:00,
2013-11-17 20:57:00,47.1,46.0,28.99,NW,318,4.0,5.0,96,0.10,,RA,1.70,VWS V14.01,2013-11-18 01:57:00,
2013-11-17 21:02:00,46.7,45.6,28.99,WNW,289,18.0,18.0,96,0.11,,RA,1.71,VWS V14.01,2013-11-18 02:02:00,
2013-11-17 21:07:00,46.2,44.8,29.00,NW,308,16.0,16.0,95,0.07,,RA,1.73,VWS V14.01,2013-11-18 02:07:00,
2013-11-17 21:12:00,45.9,44.5,29.01,NW,321,20.0,25.0,95,0.08,,RA,1.74,VWS V14.01,2013-11-18 02:12:00,
2013-11-17 21:17:00,45.6,44.0,29.02,NW,314,13.0,20.0,94,0.09,,RA,1.75,VWS V14.01,2013-11-18 02:17:00,
2013-11-17 21:22:00,45.4,43.8,29.02,NNE,13,9.0,22.0,94,0.10,,RA,1.76,VWS V14.01,2013-11-18 02:22:00,
2013-11-17 21:27:00,45.1,43.8,29.02,WNW,301,5.0,5.0,95,0.10,,RA,1.76,VWS V14.01,2013-11-18 02:27:00,
2013-11-17 21:32:00,44.9,43.6,29.03,NW,324,10.0,16.0,95,0.11,,RA,1.77,VWS V14.01,2013-11-18 02:32:00,
2013-11-17 21:37:00,44.8,43.5,29.03,NW,324,10.0,16.0,95,0.09,,RA,1.78,VWS V14.01,2013-11-18 02:37:00,
2013-11-17 21:42:00,44.7,43.4,29.04,NW,325,16.0,17.0,95,0.09,,RA,1.78,VWS V14.01,2013-11-18 02:42:00,
2013-11-17 21:47:00,44.6,43.3,29.04,NNW,332,21.0,21.0,95,0.10,,RA,1.79,VWS V14.01,2013-11-18 02:47:00,
2013-11-17 21:52:00,44.6,43.3,29.05,NNW,335,12.0,14.0,95,0.11,,RA,1.80,VWS V14.01,2013-11-18 02:52:00,
2013-11-17 21:57:00,44.6,43.3,29.06,NNW,340,10.0,11.0,95,0.11,,RA,1.80,VWS V14.01,2013-11-18 02:57:00,
2013-11-17 22:02:00,44.5,43.2,29.06,WNW,298,9.0,13.0,95,0.12,,-RA,1.81,VWS V14.01,2013-11-18 03:02:00,
2013-11-17 22:07:00,44.5,43.2,29.06,NNW,331,12.0,15.0,95,0.09,,-RA,1.81,VWS V14.01,2013-11-18 03:07:00,
2013-11-17 22:12:00,44.5,43.2,29.07,NNW,342,10.0,10.0,95,0.10,,-RA,1.82,VWS V14.01,2013-11-18 03:12:00,
2013-11-17 22:17:00,44.6,43.5,29.07,NNW,335,10.0,13.0,96,0.10,,-RA,1.82,VWS V14.01,2013-11-18 03:17:00,
2013-11-17 22:22:00,44.6,43.5,29.07,NNW,329,15.0,15.0,96,0.10,,-RA,1.82,VWS V14.01,2013-11-18 03:22:00,
2013-11-17 22:27:00,44.6,43.3,29.08,NW,311,13.0,16.0,95,0.11,,-RA,1.83,VWS V14.01,2013-11-18 03:27:00,
2013-11-17 22:32:00,44.6,43.3,29.08,WNW,290,8.0,16.0,95,0.11,,-RA,1.83,VWS V14.01,2013-11-18 03:32:00,
2013-11-17 22:37:00,44.7,43.4,29.08,NW,326,8.0,9.0,95,0.06,,-RA,1.83,VWS V14.01,2013-11-18 03:37:00,
2013-11-17 22:42:00,44.7,43.4,29.09,WNW,294,5.0,7.0,95,0.07,,-RA,1.84,VWS V14.01,2013-11-18 03:42:00,
2013-11-17 22:47:00,44.7,43.4,29.09,WNW,299,16.0,20.0,95,0.07,,-RA,1.84,VWS V14.01,2013-11-18 03:47:00,
2013-11-17 22:52:00,44.7,43.4,29.09,NW,304,8.0,11.0,95,0.08,,-RA,1.85,VWS V14.01,2013-11-18 03:52:00,
2013-11-17 22:57:00,44.7,43.4,29.10,NW,308,10.0,10.0,95,0.08,,-RA,1.85,VWS V14.01,2013-11-18 03:57:00,
2013-11-17 23:02:00,44.7,43.1,29.10,NW,308,9.0,12.0,94,0.09,,-RA,1.86,VWS V14.01,2013-11-18 04:02:00,
2013-11-17 23:07:00,44.7,43.1,29.11,NNW,335,4.0,12.0,94,0.05,,-RA,1.86,VWS V14.01,2013-11-18 04:07:00,
2013-11-17 23:12:00,44.6,43.0,29.11,WNW,300,8.0,11.0,94,0.05,,-RA,1.86,VWS V14.01,2013-11-18 04:12:00,
2013-11-17 23:17:00,44.5,42.9,29.11,NNW,329,6.0,10.0,94,0.05,,-RA,1.86,VWS V14.01,2013-11-18 04:17:00,
2013-11-17 23:22:00,44.4,42.8,29.12,WNW,286,9.0,9.0,94,0.06,,-RA,1.87,VWS V14.01,2013-11-18 04:22:00,
2013-11-17 23:27:00,44.3,42.4,29.12,NW,309,8.0,8.0,93,0.06,,-RA,1.87,VWS V14.01,2013-11-18 04:27:00,
2013-11-17 23:33:00,44.2,42.3,29.13,North,357,11.0,15.0,93,0.06,,-RA,1.87,VWS V14.01,2013-11-18 04:33:00,
2013-11-17 23:38:00,44.2,42.3,29.14,NW,321,19.0,19.0,93,0.04,,-RA,1.87,VWS V14.01,2013-11-18 04:38:00,
2013-11-17 23:43:00,44.2,42.3,29.14,NW,313,10.0,13.0,93,0.05,,-RA,1.88,VWS V14.01,2013-11-18 04:43:00,
2013-11-17 23:48:00,44.3,42.4,29.14,North,357,8.0,9.0,93,0.05,,-RA,1.88,VWS V14.01,2013-11-18 04:48:00,
2013-11-17 23:53:00,44.2,42.3,29.15,WNW,294,10.0,19.0,93,0.05,,-RA,1.88,VWS V14.01,2013-11-18 04:53:00,
2013-11-17 23:58:00,44.2,42.0,29.16,WNW,298,13.0,15.0,92,0.05,,-RA,1.88,VWS V14.01,2013-11-18 04:58:00,